User: anonymous   Login
Location: Unspecified
(0.0000°N, 0.0000°E)
Time: 20:01:32
(UTC+00:00)
Language:

GOES 5 - Orbit

View from above orbital plane
View from above orbital plane
View from above satellite
View from above satellite

Ground track
Ground track

The orbit data is extracted from the following two-line orbital elements,

1 12472U 81049A   17269.37193142 -.00000271  00000-0  00000+0 0  9993
2 12472  14.2864 343.9755 0006114 250.3011 190.1703  1.00232650 91014
Epoch (UTC): 26 September 2017 08:55:34
Eccentricity: 0.0006114
inclination: 14.2864°
perigee height: 35771 km
apogee height: 35823 km
right ascension of ascending node: 343.9755°
argument of perigee: 250.3011°
revolutions per day: 1.00232650
mean anomaly at epoch: 190.1703°
orbit number at epoch: 9101

The dashed part of the orbit path shows where the satellite is in the earth's shadow,  

DLR